[[{"header":{"parameterUnit":"m.s-1","parameterCategory":1,"la1":30.2991,"la2":30.254,"lo1":-89.0895,"lo2":-89.0444,"dy":0.0017,"dx":0.0017,"nx":28,"ny":28,"refTime":"2024-03-17T21:00:00:Z","depth":0,"parameterNumber":2,"parameterNumberName":"U-component_of_WINDS"},"data":[0,0,0,0,0,0,0,0,0,0,0,0,0,0,0,0,0,0,0,0,0,0,0,0,0,0,0,0,0,0,0,0,0,0,0,0,0,0,0,0,0,0,0,0,0,0,0,0,0,0,0,0,0,0,0,0,0,0,-3.3686,-3.3687,0,-3.3745,-3.3745,-3.3746,-3.3618,-3.3614,-3.361,-3.3606,-3.3668,-3.3673,-3.3679,0,0,0,0,0,0,0,0,0,0,0,0,0,-3.3464,-3.3469,-3.3686,-3.3687,-3.3688,-3.3745,-3.3745,-3.3746,-3.3619,-3.3614,-3.3609,-3.3604,-3.3666,-3.3673,-3.3679,0,0,0,0,0,0,0,0,0,0,0,0,0,-3.3546,-3.347,-3.3686,-3.3631,-3.3627,-3.3745,-3.3746,-3.3746,-3.362,-3.3614,-3.3608,-3.3602,-3.3664,-3.3672,-3.368,-3.3855,0,0,-3.3705,-3.3709,0,0,0,0,0,0,0,0,-3.3541,-3.3554,-3.3638,-3.3635,-3.363,-3.3668,-3.3689,-3.3783,-3.3622,-3.3623,-3.3606,-3.3599,-3.3673,-3.368,-3.3705,-3.3857,-3.386,-3.3706,-3.3711,-3.3714,-3.3717,0,0,0,0,0,0,0,-3.3536,-3.3551,-3.3709,-3.364,-3.3635,-3.3603,-3.3608,-3.3707,-3.3682,-3.3622,-3.3613,-3.3622,-3.367,-3.3697,-3.3705,-3.3861,-3.3706,-3.3713,-3.3718,-3.3721,-3.4158,-3.4164,0,0,0,0,0,0,-3.3537,-3.3547,-3.3708,-3.3711,-3.3569,-3.3612,-3.3618,-3.3662,-3.368,-3.3677,-3.3627,-3.3615,-3.3686,-3.3696,-3.3707,-3.3912,-3.3714,-3.3722,-3.3727,-3.4151,-3.4159,-3.4166,0,0,0,0,0,0,-3.3533,-3.3552,-3.3705,-3.3626,-3.3643,-3.3623,-3.3674,-3.3667,-3.3694,-3.3684,-3.3679,-3.366,-3.3682,-3.3695,-3.3818,-3.3912,-3.3726,-3.3733,-3.4143,-3.4154,-3.4163,-3.4324,0,0,0,0,0,0,-3.3527,-3.3552,-3.3618,-3.3629,-3.3648,-3.3817,-3.368,-3.3672,-3.3708,-3.3694,-3.3713,-3.3711,-3.3678,-3.3807,-3.3826,-3.392,-3.374,-3.4135,-3.4148,-3.416,-3.431,-3.4338,-3.4362,0,0,0,0,0,-3.3519,-3.3662,-3.3622,-3.3642,-3.3731,-3.3822,-3.3833,-3.3792,-3.3716,-3.3783,-3.3776,-3.371,-3.3898,-3.382,-3.3842,-3.3939,-3.4129,-3.4144,-3.4159,-3.4298,-3.4332,-3.4361,0,0,0,0,0,0,-3.3664,-3.3662,-3.3618,-3.3769,-3.3796,-3.38,-3.3883,-3.383,-3.388,-3.3865,-3.3811,-3.3817,-3.395,-3.3956,-3.387,-3.4108,-3.4001,-3.4021,-3.4099,-3.4132,-3.4157,-3.4154,-3.3747,0,0,0,0,0,-3.3713,-3.3787,-3.3782,-3.3915,-3.3931,-3.3905,-3.3943,-3.3909,-3.3935,-3.3947,-3.3949,-3.3978,-3.4043,-3.4087,-3.4147,-3.4309,-3.4311,-3.4386,-3.4412,-3.4434,-3.4452,-3.4537,-3.457,-3.4216,-3.4215,-3.4215,0,0,-3.3817,-3.3824,-3.3875,-3.3944,-3.3962,-3.4039,-3.3916,-3.4004,-3.4061,-3.396,-3.4076,-3.4079,-3.4107,-3.425,-3.4313,-3.426,-3.455,-3.4453,-3.447,-3.4477,-3.4556,-3.459,-3.4619,-3.4226,-3.4224,-3.4222,0,0,-3.4044,-3.4058,-3.4169,-3.4189,-3.4216,-3.4197,-3.4224,-3.4236,-3.4233,-3.4348,-3.4274,-3.4341,-3.4455,-3.4477,-3.4504,-3.4737,-3.4678,-3.4758,-3.4894,-3.4978,-3.5006,-3.503,-3.5113,-3.5144,-3.4776,-3.4776,-3.4776,0,-3.4169,-3.4283,-3.4234,-3.4327,-3.4359,-3.427,-3.4382,-3.4403,-3.4449,-3.4474,-3.4412,-3.4552,-3.4565,-3.4711,-3.4768,-3.4792,-3.4821,-3.4756,-3.5005,-3.503,-3.5052,-3.513,-3.5162,-3.4786,-3.4785,-3.4784,-3.4783,0,-3.4435,-3.4515,-3.4602,-3.4647,-3.4689,-3.4792,-3.4758,-3.4806,-3.4767,-3.4754,-3.4872,-3.4884,-3.4943,-3.4975,-3.4939,-3.5117,-3.5082,-3.5014,-3.4906,-3.5096,-3.5169,-3.5199,-3.4799,-3.4796,-3.4793,-3.4791,0,0,-3.4759,-3.4773,-3.4806,-3.4825,-3.4847,-3.4908,-3.5005,-3.5062,-3.5104,-3.5138,-3.5218,-3.5315,-3.5252,-3.5282,-3.5246,-3.532,-3.5503,-3.5242,-3.5242,-3.5291,-3.5699,-3.5751,-3.5786,-3.5463,-3.5468,-3.5473,-3.5696,0,-3.4984,-3.5151,-3.5109,-3.5275,-3.5348,-3.5262,-3.5347,-3.5369,-3.536,-3.5419,-3.5408,-3.5478,-3.5389,-3.5406,-3.5474,-3.5466,-3.5584,-3.5449,-3.5537,-3.5541,-3.5534,-3.5824,-3.588,-3.6091,-3.5724,-3.5729,-3.5733,0,-3.527,-3.5314,-3.5487,-3.5495,-3.5524,-3.5601,-3.5649,-3.5707,-3.573,-3.5718,-3.575,-3.57,-3.5795,-3.5684,-3.5814,-3.5723,-3.5756,-3.5757,-3.5764,-3.5772,-3.565,-3.5841,-3.6157,-3.6189,-3.5777,-3.5774,-3.577,0,-3.5489,-3.5591,-3.5707,-3.5726,-3.5738,-3.5794,-3.5802,-3.5818,-3.5855,-3.5896,-3.5919,-3.5972,-3.6001,-3.6043,-3.6007,-3.593,-3.6143,-3.603,-3.6136,-3.6137,-3.6186,-3.6184,-3.6513,-3.6206,-3.6206,-3.6205,-3.6204,0,-3.5746,-3.5856,-3.5805,-3.5877,-3.5997,-3.5946,-3.6065,-3.6063,-3.6078,-3.6148,-3.6077,-3.6143,-3.6092,-3.6154,-3.6126,-3.6238,-3.6252,-3.6244,-3.6236,-3.6251,-3.6253,-3.6273,-3.6258,-3.6213,-3.6211,-3.621,-3.6208,0,-3.6012,-3.5983,-3.6104,-3.6105,-3.6107,-3.6195,-3.6196,-3.6262,-3.6245,-3.6334,-3.6352,-3.6327,-3.6396,-3.6364,-3.6437,-3.6418,-3.6562,-3.6533,-3.6554,-3.6547,-3.6655,-3.6645,-3.701,-3.7055,-3.6719,-3.6722,-3.6725,0,-3.6179,-3.6261,-3.6269,-3.631,-3.6323,-3.639,-3.6426,-3.6378,-3.6419,-3.645,-3.6512,-3.6574,-3.6622,-3.6736,-3.6724,-3.6779,-3.6752,-3.6875,-3.676,-3.6772,-3.6754,-3.675,-3.6757,-3.69,-3.6903,-3.6907,-3.6909,0,-3.6478,-3.6458,-3.6513,-3.6563,-3.6608,-3.6645,-3.6675,-3.6713,-3.6666,-3.6715,-3.6784,-3.6821,-3.6893,-3.6956,-3.7003,-3.7011,-3.6953,-3.6945,-3.6973,-3.699,-3.6999,-3.6996,-3.6618,-3.6938,-3.6935,-3.6933,-3.6931,-3.693,-3.6699,-3.6767,-3.6784,-3.6847,-3.6864,-3.6894,-3.6956,-3.6946,-3.7003,-3.7058,-3.7025,-3.7106,-3.7125,-3.7182,-3.7197,-3.7259,-3.721,-3.725,-3.726,-3.7271,-3.7285,-3.6988,-3.7267,-3.7266,-3.7265,-3.7264,-3.7264,0,-3.6994,-3.7,-3.7058,-3.7102,-3.7152,-3.7091,-3.7121,-3.7166,-3.7238,-3.726,-3.7307,-3.7386,-3.7446,-3.7437,-3.7492,-3.7543,-3.7517,-3.7559,-3.7555,-3.7558,-3.7326,-3.7297,-3.7578,-3.7578,-3.7578,-3.7578,-3.7578,-3.7578,-3.7154,-3.7266,-3.7248,-3.7367,-3.7372,-3.745,-3.7472,-3.7499,-3.7516,-3.7606,-3.7655,-3.7649,-3.7658,-3.7712,-3.7764,-3.776,-3.7783,-3.7835,-3.7821,-3.7605,-3.7574,-3.7545,-3.7517,-3.784,-3.7841,-3.8048,-3.805,-3.8051]},{"header":{"parameterUnit":"m.s-1","parameterCategory":1,"la1":30.2991,"la2":30.254,"lo1":-89.0895,"lo2":-89.0444,"dy":0.0017,"dx":0.0017,"nx":28,"ny":28,"refTime":"2024-03-17T21:00:00:Z","depth":0,"parameterNumber":3,"parameterNumberName":"V-component_of_WINDS"},"data":[0,0,0,0,0,0,0,0,0,0,0,0,0,0,0,0,0,0,0,0,0,0,0,0,0,0,0,0,0,0,0,0,0,0,0,0,0,0,0,0,0,0,0,0,0,0,0,0,0,0,0,0,0,0,0,0,0,0,-6.3092,-6.3094,0,-6.3188,-6.3189,-6.319,-6.308,-6.3076,-6.3072,-6.3068,-6.3161,-6.3167,-6.3174,0,0,0,0,0,0,0,0,0,0,0,0,0,-6.2807,-6.2813,-6.3092,-6.3094,-6.3095,-6.3188,-6.3189,-6.3191,-6.3081,-6.3076,-6.3071,-6.3066,-6.3159,-6.3167,-6.3174,0,0,0,0,0,0,0,0,0,0,0,0,0,-6.292,-6.2815,-6.3092,-6.3051,-6.3049,-6.3188,-6.3189,-6.3191,-6.3082,-6.3075,-6.3069,-6.3063,-6.3157,-6.3166,-6.3175,-6.3358,0,0,-6.3204,-6.3208,0,0,0,0,0,0,0,0,-6.2914,-6.293,-6.3056,-6.3054,-6.3052,-6.3116,-6.3123,-6.3247,-6.3083,-6.3069,-6.3068,-6.306,-6.3151,-6.316,-6.3192,-6.3362,-6.3366,-6.3205,-6.3211,-6.3215,-6.3218,0,0,0,0,0,0,0,-6.2906,-6.2926,-6.313,-6.3058,-6.3055,-6.3026,-6.3035,-6.3146,-6.3143,-6.307,-6.3062,-6.3075,-6.3148,-6.3183,-6.3193,-6.3368,-6.3205,-6.3213,-6.3219,-6.3223,-6.3689,-6.3696,0,0,0,0,0,0,-6.2904,-6.292,-6.3127,-6.3133,-6.2966,-6.3036,-6.3046,-6.3101,-6.3142,-6.3142,-6.308,-6.307,-6.317,-6.3182,-6.3196,-6.3411,-6.3215,-6.3224,-6.3229,-6.3683,-6.3691,-6.3698,0,0,0,0,0,0,-6.2898,-6.2923,-6.3123,-6.3024,-6.3048,-6.3048,-6.311,-6.3107,-6.3141,-6.315,-6.3148,-6.3117,-6.3165,-6.3183,-6.3318,-6.3412,-6.3228,-6.3237,-6.3675,-6.3685,-6.3694,-6.3843,0,0,0,0,0,0,-6.289,-6.2922,-6.2993,-6.3027,-6.3053,-6.3246,-6.3116,-6.3113,-6.3158,-6.3145,-6.3184,-6.3184,-6.3162,-6.3305,-6.3328,-6.3422,-6.3244,-6.3666,-6.3679,-6.3691,-6.383,-6.3857,-6.388,0,0,0,0,0,-6.2881,-6.3031,-6.2997,-6.3023,-6.3143,-6.3252,-6.3267,-6.324,-6.3167,-6.3237,-6.3242,-6.3183,-6.3399,-6.3319,-6.3344,-6.3443,-6.366,-6.3676,-6.369,-6.3818,-6.3852,-6.388,0,0,0,0,0,0,-6.3007,-6.3035,-6.2998,-6.3164,-6.3207,-6.3233,-6.3321,-6.3276,-6.3339,-6.3324,-6.3286,-6.3296,-6.344,-6.3455,-6.3366,-6.362,-6.3517,-6.3538,-6.3606,-6.3637,-6.3662,-6.3655,-6.3252,0,0,0,0,0,-6.3055,-6.3143,-6.3161,-6.3306,-6.3329,-6.3322,-6.3369,-6.3344,-6.3386,-6.3403,-6.3418,-6.3459,-6.3536,-6.3587,-6.3659,-6.3831,-6.3836,-6.3911,-6.3936,-6.3957,-6.3975,-6.4065,-6.4097,-6.3747,-6.3747,-6.3747,0,0,-6.3153,-6.3179,-6.3237,-6.3332,-6.3362,-6.3452,-6.3338,-6.3439,-6.3504,-6.3417,-6.3546,-6.3559,-6.3602,-6.3756,-6.3825,-6.3773,-6.4073,-6.3976,-6.3993,-6.4,-6.4083,-6.4117,-6.4146,-6.3758,-6.3756,-6.3754,0,0,-6.3379,-6.3409,-6.3531,-6.3564,-6.3611,-6.3604,-6.3634,-6.3667,-6.3672,-6.3801,-6.3737,-6.3813,-6.3947,-6.398,-6.4014,-6.425,-6.4197,-6.4274,-6.4406,-6.4493,-6.4521,-6.4545,-6.4627,-6.4657,-6.4292,-6.4292,-6.4293,0,-6.3495,-6.363,-6.36,-6.3705,-6.3747,-6.3673,-6.3796,-6.3828,-6.3896,-6.3925,-6.3867,-6.4032,-6.4056,-6.4215,-6.4272,-6.4303,-6.4334,-6.4269,-6.452,-6.4544,-6.4566,-6.4643,-6.4675,-6.4301,-6.43,-6.4299,-6.4298,0,-6.377,-6.3864,-6.3957,-6.4025,-6.4078,-6.4191,-6.4175,-6.4232,-6.4202,-6.4201,-6.4331,-6.4357,-6.4431,-6.4467,-6.4439,-6.4622,-6.4589,-6.4526,-6.4421,-6.4609,-6.4681,-6.4711,-6.4314,-6.4311,-6.4308,-6.4306,0,0,-6.4079,-6.4128,-6.4162,-6.4191,-6.4237,-6.4308,-6.4416,-6.449,-6.4538,-6.4586,-6.4674,-6.4788,-6.4729,-6.4768,-6.4743,-6.482,-6.5002,-6.4747,-6.4747,-6.4792,-6.5203,-6.5249,-6.5284,-6.4967,-6.4972,-6.4977,-6.5198,0,-6.4304,-6.4494,-6.4468,-6.465,-6.4734,-6.4665,-6.4758,-6.4795,-6.4796,-6.4867,-6.4867,-6.4948,-6.4865,-6.4888,-6.4961,-6.4964,-6.5083,-6.4948,-6.5046,-6.505,-6.5037,-6.5322,-6.5373,-6.558,-6.5227,-6.5231,-6.5235,0,-6.4593,-6.4652,-6.4843,-6.4873,-6.4907,-6.4993,-6.5056,-6.5125,-6.5164,-6.5159,-6.5202,-6.5162,-6.5267,-6.5161,-6.5304,-6.5212,-6.525,-6.5257,-6.5265,-6.5272,-6.5154,-6.5336,-6.5646,-6.5677,-6.5279,-6.5276,-6.5273,0,-6.4798,-6.4925,-6.5055,-6.5082,-6.512,-6.5181,-6.52,-6.5233,-6.5278,-6.5333,-6.5361,-6.5427,-6.5464,-6.5515,-6.5492,-6.5417,-6.5639,-6.5531,-6.5636,-6.5637,-6.5685,-6.5683,-6.6005,-6.5712,-6.5712,-6.5711,-6.571,0,-6.5051,-6.517,-6.5147,-6.5227,-6.5356,-6.5324,-6.5452,-6.5462,-6.5491,-6.557,-6.5513,-6.5587,-6.5553,-6.5624,-6.5607,-6.5727,-6.5744,-6.5741,-6.5735,-6.5746,-6.5746,-6.577,-6.5755,-6.5719,-6.5718,-6.5716,-6.5715,0,-6.5302,-6.5292,-6.5428,-6.5453,-6.5462,-6.5557,-6.5577,-6.565,-6.5646,-6.5746,-6.5767,-6.5761,-6.5841,-6.5824,-6.5912,-6.59,-6.605,-6.6026,-6.6038,-6.6032,-6.6137,-6.6127,-6.6485,-6.653,-6.621,-6.6213,-6.6215,0,-6.5465,-6.5554,-6.5589,-6.5638,-6.5661,-6.5741,-6.5786,-6.5757,-6.5806,-6.5856,-6.5922,-6.5998,-6.6057,-6.6188,-6.619,-6.6256,-6.6233,-6.6354,-6.6243,-6.625,-6.6233,-6.6228,-6.6235,-6.6376,-6.638,-6.6383,-6.6385,0,-6.5753,-6.5743,-6.5812,-6.5879,-6.5935,-6.5986,-6.6031,-6.6073,-6.6047,-6.6105,-6.6187,-6.6233,-6.6323,-6.6397,-6.6458,-6.6474,-6.6425,-6.642,-6.6447,-6.6459,-6.6462,-6.646,-6.6097,-6.6412,-6.6409,-6.6407,-6.6406,-6.6405,-6.5964,-6.6039,-6.6075,-6.6152,-6.6183,-6.6226,-6.6296,-6.63,-6.6369,-6.6441,-6.6418,-6.6511,-6.6544,-6.6621,-6.6645,-6.6715,-6.6669,-6.671,-6.672,-6.673,-6.6742,-6.6451,-6.6726,-6.6725,-6.6725,-6.6724,-6.6723,0,-6.6248,-6.6267,-6.6339,-6.6404,-6.6464,-6.6414,-6.646,-6.6513,-6.6596,-6.6632,-6.6691,-6.6784,-6.6856,-6.6863,-6.693,-6.6985,-6.6964,-6.7003,-6.6998,-6.7002,-6.678,-6.6749,-6.7019,-6.7019,-6.7019,-6.7019,-6.7019,-6.7019,-6.6403,-6.6527,-6.6521,-6.6659,-6.6676,-6.6768,-6.6798,-6.6837,-6.6865,-6.6972,-6.7031,-6.7036,-6.7059,-6.7127,-6.719,-6.7189,-6.7216,-6.7264,-6.7255,-6.7048,-6.7018,-6.699,-6.6961,-6.7271,-6.7271,-6.7471,-6.7473,-6.7475]}]]